CW1706 Cambridge MD US current weather conditions

sailwx.info

Wind from 309

Air temperature -1.1° C
Dewpoint -5.5° C

Last reported at 2020-Jan-23 00:03 UTC.
Time now 2020-Jan-23 00:21 UTC

Location: N 38°36' W 076°00'.
View on Google Maps.

See reports from other nearby stations

  
Tides and Currents Weather Stations Pressure Air Temp Water Temp Dewpoint Dewpoint Depression Visibility Wind Speed Wind Dir Waves Ship Positions
date/time (UTC)wind fromknots sea level pressurealtimeterstation pressurevisibilityair tempwater tempwave heightnotes
2020-Jan-23 00:03 309 -1.1
2020-Jan-22 23:53 309 -0.6
2020-Jan-22 23:43 309 -0.0
2020-Jan-22 23:33 309 0.6
2020-Jan-22 23:23 309 1 gusting 1 0.6
2020-Jan-22 23:13 309 0 gusting 1 -0.0
2020-Jan-22 23:03 309 1 gusting 1 -0.0
2020-Jan-22 22:53 309 0 gusting 1 0.6
2020-Jan-22 22:43 309 0 gusting 1 0.6
2020-Jan-22 22:33 309 0 gusting 2 1.1
2020-Jan-22 22:23 309 1.7
2020-Jan-22 22:13 309 0 gusting 1 2.2
2020-Jan-22 22:03 309 1 gusting 2 2.2
2020-Jan-22 21:53 309 0 gusting 2 2.8
2020-Jan-22 21:43 304 1 gusting 2 2.8
2020-Jan-22 21:33 302 1 gusting 3 2.8
2020-Jan-22 21:23 303 3 gusting 6 2.8
2020-Jan-22 21:13 310 2 gusting 5 2.8
2020-Jan-22 21:03 300 3 gusting 5 2.8
2020-Jan-22 20:53 335 2 gusting 5 2.8
2020-Jan-22 20:43 350 3 gusting 4 2.8
2020-Jan-22 20:33 300 3 gusting 6 3.3
2020-Jan-22 20:23 340 2 gusting 6 3.3
2020-Jan-22 20:13 313 2 gusting 4 3.3
2020-Jan-22 20:03 309 1 gusting 5 3.3
2020-Jan-22 19:53 349 2 gusting 5 3.3
2020-Jan-22 19:43 329 2 gusting 4 3.3
2020-Jan-22 19:33 315 3 gusting 4 3.3
2020-Jan-22 19:23 304 3 gusting 5 2.8
2020-Jan-22 19:13 360 2 gusting 5 2.8
2020-Jan-22 19:03 344 2 gusting 4 2.8
2020-Jan-22 18:53 307 3 gusting 4 2.8
2020-Jan-22 18:43 337 2 gusting 5 2.8
2020-Jan-22 18:33 320 3 gusting 5 2.8
2020-Jan-22 18:13 315 3 gusting 6 2.8
2020-Jan-22 18:03 336 2 gusting 4 2.2
2020-Jan-22 17:53 312 2 gusting 4 2.2
2020-Jan-22 17:43 298 2 gusting 5 2.2
2020-Jan-22 17:33 053 1 gusting 4 2.2
2020-Jan-22 17:23 053 2 gusting 5 2.2
2020-Jan-22 17:13 304 2 gusting 5 2.2
2020-Jan-22 17:03 343 3 gusting 5 2.2
2020-Jan-22 16:53 028 2 gusting 6 2.2
2020-Jan-22 16:43 355 2 gusting 4 2.2
2020-Jan-22 16:33 055 1 gusting 5 2.2
2020-Jan-22 16:23 027 2 gusting 3 1.7
2020-Jan-22 16:13 063 3 gusting 6 1.7
2020-Jan-22 16:03 024 2 gusting 4 1.7
2020-Jan-22 15:53 024 0 gusting 4 1.1
2020-Jan-22 15:43 323 1 gusting 5 1.1
2020-Jan-22 15:23 035 4 gusting 8 0.6
2020-Jan-22 15:13 069 1 gusting 4 0.6
2020-Jan-22 15:03 054 3 gusting 5 -0.0
2020-Jan-22 14:53 005 1 gusting 5 -0.0
2020-Jan-22 14:43 053 1 gusting 5 -0.6
2020-Jan-22 14:33 066 1 gusting 5 -0.6
2020-Jan-22 14:23 005 2 gusting 5 -0.6
2020-Jan-22 14:13 355 2 gusting 5 -1.1
2020-Jan-22 14:03 005 1 gusting 4 -1.7
2020-Jan-22 13:53 034 2 gusting 5 -1.7
2020-Jan-22 13:43 355 0 gusting 3 -2.2
2020-Jan-22 13:33 342 1 gusting 3 -2.8
2020-Jan-22 13:23 355 1 gusting 4 -3.3
2020-Jan-22 13:13 350 0 gusting 2 -3.9
2020-Jan-22 13:03 348 0 gusting 1 -4.4
2020-Jan-22 12:53 347 0 gusting 0 -4.4
2020-Jan-22 12:43 347 0 gusting 1 -4.4
2020-Jan-22 12:33 347 0 gusting 1 -4.4
2020-Jan-22 12:23 347 0 gusting 2 -4.4
2020-Jan-22 12:13 348 0 gusting 2 -4.4
2020-Jan-22 12:03 348 0 gusting 1 -5.0
2020-Jan-22 11:53 348 -4.4
2020-Jan-22 11:43 348 -4.4
2020-Jan-22 11:33 348 -4.4
2020-Jan-22 11:23 348 0 gusting 1 -4.4
2020-Jan-22 11:13 348 0 gusting 1 -3.9
2020-Jan-22 11:03 345 0 gusting 1 -3.9
2020-Jan-22 10:53 343 0 gusting 2 -3.9
2020-Jan-22 10:43 338 0 gusting 3 -3.9
2020-Jan-22 10:33 005 0 gusting 2 -3.9
2020-Jan-22 10:23 011 0 gusting 2 -3.9
2020-Jan-22 10:13 005 0 gusting 1 -3.9
2020-Jan-22 10:03 010 0 gusting 2 -3.9
2020-Jan-22 09:53 009 0 gusting 2 -3.9
2020-Jan-22 09:43 037 1 gusting 2 -3.9
2020-Jan-22 09:33 038 0 gusting 2 -3.3
2020-Jan-22 09:23 014 0 gusting 2 -3.3
2020-Jan-22 09:13 040 0 gusting 2 -3.3
2020-Jan-22 09:03 033 0 gusting 5 -3.3
2020-Jan-22 08:53 022 -3.3
2020-Jan-22 08:43 022 0 gusting 2 -2.8
2020-Jan-22 08:33 355 1 gusting 5 -3.3
2020-Jan-22 08:23 043 1 gusting 2 -3.3
2020-Jan-22 08:13 034 0 gusting 2 -2.8
2020-Jan-22 08:03 037 0 gusting 2 -2.8
2020-Jan-22 07:53 046 0 gusting 4 -2.8
2020-Jan-22 07:43 020 1 gusting 4 -2.8
2020-Jan-22 07:33 049 1 gusting 4 -2.2
2020-Jan-22 07:23 042 0 gusting 5 -2.2
2020-Jan-22 07:13 060 0 gusting 3 -2.2
2020-Jan-22 07:03 012 2 gusting 5 -2.2
2020-Jan-22 06:53 063 1 gusting 7 -2.2
2020-Jan-22 06:43 005 2 gusting 7 -2.2
2020-Jan-22 06:33 026 1 gusting 6 -2.2
2020-Jan-22 06:23 037 1 gusting 5 -2.2
2020-Jan-22 06:13 040 1 gusting 4 -2.2
2020-Jan-22 06:03 047 1 gusting 4 -2.2
2020-Jan-22 05:53 028 2 gusting 4 -2.2
2020-Jan-22 05:43 061 1 gusting 5 -2.8
2020-Jan-22 05:33 017 2 gusting 5 -2.8
2020-Jan-22 05:23 019 0 gusting 2 -2.8
2020-Jan-22 05:13 022 1 gusting 2 -2.8
2020-Jan-22 05:03 024 0 gusting 2 -2.8
2020-Jan-22 04:53 014 0 gusting 1 -2.8
2020-Jan-22 04:43 013 -2.8
2020-Jan-22 04:33 265 0 gusting 2 -2.8
2020-Jan-22 04:23 265 0 gusting 3 -2.2
2020-Jan-22 04:13 010 0 gusting 3 -2.2
2020-Jan-22 04:03 053 0 gusting 2 -2.8
2020-Jan-22 03:53 355 0 gusting 2 -2.2
2020-Jan-22 03:43 032 1 gusting 5 -2.2
2020-Jan-22 03:33 036 1 gusting 3 -2.2
2020-Jan-22 03:23 043 1 gusting 5 -2.2
2020-Jan-22 03:13 038 0 gusting 2 -2.2
2020-Jan-22 03:03 038 0 gusting 2 -2.2
2020-Jan-22 02:53 038 0 gusting 2 -1.7
2020-Jan-22 02:43 047 0 gusting 2 -1.7
2020-Jan-22 02:33 054 1 gusting 3 -1.7
2020-Jan-22 02:23 030 0 gusting 2 -1.7
2020-Jan-22 02:13 014 1 gusting 3 -1.7
2020-Jan-22 02:03 043 1 gusting 7 -1.1
2020-Jan-22 01:53 030 2 gusting 6 -1.1
2020-Jan-22 01:43 039 1 gusting 4 -1.1
2020-Jan-22 01:33 022 2 gusting 6 -1.1
2020-Jan-22 01:23 038 2 gusting 4 -1.1
2020-Jan-22 01:13 024 2 gusting 4 -1.1
2020-Jan-22 01:03 038 0 gusting 5 -1.1
2020-Jan-22 00:53 030 2 gusting 3 -1.1
2020-Jan-22 00:43 050 1 gusting 4 -1.7
2020-Jan-22 00:33 040 1 gusting 2 -1.7
2020-Jan-22 00:23 027 0 gusting 3 -1.7
2020-Jan-22 00:13 025 0 gusting 3 -1.1
2020-Jan-22 00:03 046 0 gusting 3 -1.7
2020-Jan-21 23:53 034 0 gusting 2 -1.7
2020-Jan-21 23:43 017 0 gusting 2 -1.7
2020-Jan-21 23:33 360 0 gusting 1 -1.1
2020-Jan-21 23:23 005 0 gusting 3 -1.1
2020-Jan-21 23:13 011 0 gusting 2 -1.1
2020-Jan-21 23:03 010 0 gusting 1 -1.1
2020-Jan-21 22:53 009 0 gusting 2 -0.6
2020-Jan-21 22:43 011 1 gusting 3 -0.6
2020-Jan-21 22:33 342 0 gusting 3 -0.6
2020-Jan-21 22:23 005 1 gusting 3 -0.0
2020-Jan-21 22:13 340 2 gusting 4 -0.0
2020-Jan-21 22:03 355 2 gusting 4 -0.0
2020-Jan-21 21:53 342 2 gusting 5 0.6
2020-Jan-21 21:43 351 2 gusting 7 0.6
2020-Jan-21 21:33 348 2 gusting 7 0.6
2020-Jan-21 21:23 063 2 gusting 6 0.6
2020-Jan-21 21:13 355 3 gusting 7 1.1
2020-Jan-21 21:03 355 3 gusting 8 1.1
2020-Jan-21 20:53 315 4 gusting 6 1.1
2020-Jan-21 20:43 355 2 gusting 8 1.1
2020-Jan-21 20:33 035 3 gusting 7 1.1
2020-Jan-21 20:23 015 5 gusting 8 1.1
2020-Jan-21 20:13 355 3 gusting 5 1.1
2020-Jan-21 20:03 325 4 gusting 8 1.1
2020-Jan-21 19:53 005 3 gusting 7 1.1
2020-Jan-21 19:43 051 3 gusting 6 1.1
2020-Jan-21 19:33 346 3 gusting 8 1.1
2020-Jan-21 19:23 318 3 gusting 7 1.1
2020-Jan-21 19:13 321 3 gusting 7 1.1
2020-Jan-21 19:03 334 3 gusting 6 1.1
2020-Jan-21 18:53 340 4 gusting 7 1.1
2020-Jan-21 18:43 360 2 gusting 7 1.1
2020-Jan-21 18:33 318 3 gusting 7 1.7
2020-Jan-21 18:23 010 4 gusting 10 1.1
2020-Jan-21 18:13 034 3 gusting 9 1.1
2020-Jan-21 18:03 319 3 gusting 8 0.6
2020-Jan-21 17:53 360 3 gusting 8 1.1
2020-Jan-21 17:43 316 3 gusting 7 0.6
2020-Jan-21 17:33 330 2 gusting 8 0.6
2020-Jan-21 17:23 335 2 gusting 7 0.6
2020-Jan-21 17:13 029 3 gusting 10 0.6
2020-Jan-21 17:03 026 4 gusting 8 0.6
2020-Jan-21 16:53 316 4 gusting 9 -0.0
2020-Jan-21 16:43 323 3 gusting 10 -0.0
2020-Jan-21 16:33 338 2 gusting 11 -0.0
2020-Jan-21 16:23 032 4 gusting 12 -0.0
2020-Jan-21 16:13 045 2 gusting 11 -0.0
2020-Jan-21 16:03 360 5 gusting 10 -0.0
2020-Jan-21 15:53 321 4 gusting 9 -0.6
2020-Jan-21 15:43 350 5 gusting 13 -0.6
2020-Jan-21 15:33 051 4 gusting 13 -0.6
2020-Jan-21 15:23 071 5 gusting 9 -1.1
2020-Jan-21 15:13 031 4 gusting 11 -1.1
2020-Jan-21 15:03 360 3 gusting 11 -1.1
2020-Jan-21 14:53 012 4 gusting 11 -1.7
2020-Jan-21 14:43 103 3 gusting 10 -1.7
2020-Jan-21 14:33 035 4 gusting 10 -1.7
2020-Jan-21 14:23 292 3 gusting 11 -2.2
2020-Jan-21 14:13 334 2 gusting 8 -2.2
2020-Jan-21 14:03 009 4 gusting 9 -2.8
2020-Jan-21 13:53 005 2 gusting 8 -2.8
2020-Jan-21 13:43 028 2 gusting 5 -3.3
2020-Jan-21 13:33 005 1 gusting 6 -3.9
2020-Jan-21 13:23 313 2 gusting 3 -4.4
2020-Jan-21 13:13 300 2 gusting 4 -4.4
2020-Jan-21 13:03 355 1 gusting 4 -5.0
2020-Jan-21 12:53 009 2 gusting 6 -5.0
2020-Jan-21 12:43 032 2 gusting 6 -5.0
2020-Jan-21 12:33 345 0 gusting 4 -5.6
2020-Jan-21 12:23 320 1 gusting 2 -5.6
2020-Jan-21 12:13 320 1 gusting 3 -5.6
2020-Jan-21 12:03 013 1 gusting 3 -5.0
2020-Jan-21 11:53 009 2 gusting 3 -5.0
2020-Jan-21 11:43 012 1 gusting 4 -5.0
2020-Jan-21 11:33 026 0 gusting 6 -5.0
2020-Jan-21 11:23 045 1 gusting 6 -5.0
2020-Jan-21 11:13 028 2 gusting 5 -4.4
2020-Jan-21 11:03 057 2 gusting 5 -4.4
2020-Jan-21 10:53 021 1 gusting 7 -4.4
2020-Jan-21 10:43 055 1 gusting 7 -4.4
2020-Jan-21 10:33 011 3 gusting 9 -4.4
2020-Jan-21 10:23 018 2 gusting 9 -3.9
2020-Jan-21 10:13 015 1 gusting 7 -3.9
2020-Jan-21 10:03 072 3 gusting 10 -3.9
2020-Jan-21 09:53 026 3 gusting 8 -3.9
2020-Jan-21 09:43 061 2 gusting 5 -3.9
2020-Jan-21 09:33 057 0 gusting 8 -3.9
2020-Jan-21 09:23 018 0 gusting 8 -3.9
2020-Jan-21 09:13 039 3 gusting 10 -3.9
2020-Jan-21 09:03 049 2 gusting 5 -3.9
2020-Jan-21 08:53 005 2 gusting 7 -3.9
2020-Jan-21 08:43 059 3 gusting 7 -3.3
2020-Jan-21 08:33 360 3 gusting 7 -3.3
2020-Jan-21 08:23 098 2 gusting 8 -3.3
2020-Jan-21 08:13 005 2 gusting 6 -3.3
2020-Jan-21 08:03 014 2 gusting 8 -3.3
2020-Jan-21 07:53 028 3 gusting 8 -3.3
2020-Jan-21 07:43 051 3 gusting 8 -3.3
2020-Jan-21 07:33 355 1 gusting 4 -3.3
2020-Jan-21 07:23 039 3 gusting 7 -3.3
2020-Jan-21 07:13 030 0 gusting 5 -3.3
2020-Jan-21 07:03 049 2 gusting 6 -3.3
2020-Jan-21 06:53 011 3 gusting 7 -3.3
2020-Jan-21 06:43 038 1 gusting 5 -2.8
2020-Jan-21 06:33 053 2 gusting 8 -2.8
2020-Jan-21 06:23 041 2 gusting 8 -2.8
2020-Jan-21 06:13 037 2 gusting 8 -2.8
2020-Jan-21 06:03 350 2 gusting 7 -2.8
2020-Jan-21 05:53 026 4 gusting 9 -2.8
2020-Jan-21 05:43 012 4 gusting 10 -2.8
2020-Jan-21 05:33 347 2 gusting 10 -2.8
2020-Jan-21 05:23 013 4 gusting 9 -2.8
2020-Jan-21 05:13 055 4 gusting 10 -2.8
2020-Jan-21 05:03 049 2 gusting 6 -2.8
2020-Jan-21 04:53 032 2 gusting 6 -2.8
2020-Jan-21 04:43 317 1 gusting 5 -2.8
2020-Jan-21 04:33 034 2 gusting 9 -2.8
2020-Jan-21 04:23 011 1 gusting 8 -2.2
2020-Jan-21 04:13 034 2 gusting 9 -2.8
2020-Jan-21 04:03 033 3 gusting 8 -2.8
2020-Jan-21 03:53 052 1 gusting 3 -2.8
2020-Jan-21 03:43 327 1 gusting 7 -2.8
2020-Jan-21 03:33 048 2 gusting 7 -2.8
2020-Jan-21 03:23 026 2 gusting 7 -2.8
2020-Jan-21 03:13 343 2 gusting 6 -2.8
2020-Jan-21 03:03 005 2 gusting 4 -2.8
2020-Jan-21 02:53 040 2 gusting 7 -2.8
2020-Jan-21 02:43 360 2 gusting 6 -2.8
2020-Jan-21 02:33 349 1 gusting 4 -2.8
2020-Jan-21 02:23 050 1 gusting 5 -2.2
2020-Jan-21 02:13 005 1 gusting 7 -2.2
2020-Jan-21 02:03 034 2 gusting 9 -2.2
2020-Jan-21 01:53 042 2 gusting 6 -2.2
2020-Jan-21 01:43 016 3 gusting 7 -2.2
2020-Jan-21 01:33 355 2 gusting 8 -2.2
2020-Jan-21 01:23 042 2 gusting 8 -2.2
2020-Jan-21 01:13 057 2 gusting 6 -2.2
2020-Jan-21 01:03 053 2 gusting 6 -2.2
2020-Jan-21 00:53 351 2 gusting 8 -2.2
2020-Jan-21 00:43 350 2 gusting 9 -1.7
2020-Jan-21 00:33 042 2 gusting 6 -1.7
2020-Jan-21 00:23 024 0 gusting 9 -1.7
2020-Jan-21 00:13 034 1 gusting 5 -1.7
2020-Jan-21 00:03 329 1 gusting 5 -1.7